This demonstration page uses our WeatherBlox Daily Observations layout. Learn more.

40.92945, -100.16068

Hourly Observations for December 29, 2019

Temp ( °F °C ) Dew Point ( °F °C ) Humidity (%) Winds ( mph kmh ) Pressure ( in mb ) Visibility ( mi km ) Precip ( " mm )
12:15 am 00:15 Cloudy with Heavy Snow 27 -2.6 27 -3 97 97 NW 22 35 29.73 1007 N/A 0 0
12:35 am 00:35 Cloudy with Heavy Snow 27 -2.8 26 -3.2 97 97 NW 24 39 29.73 1007 N/A 0.01 0.254
12:55 am 00:55 Cloudy with Heavy Snow 27 -2.8 26 -3.2 97 97 NW 25 41 29.73 1007 N/A 0.02 0.508
1:15 am 01:15 Cloudy with Heavy Snow 27 -3 26 -3.5 96 96 NW 21 33 29.74 1007 0.25 0.402335 0 0
1:35 am 01:35 Cloudy with Snow 27 -3 26 -3.5 96 96 NW 22 35 29.75 1007 0.75 1.207005 0.01 0.254
1:55 am 01:55 Cloudy with Light Snow 27 -3 26 -3.5 96 96 NW 18 30 29.75 1007 1.25 2.011675 0.02 0.508
2:15 am 02:15 Windy with Snow Likely 27 -3 25 -3.7 95 95 NW 25 41 29.75 1007 1.5 2.41401 0 0
2:35 am 02:35 Windy with Snow Likely 26 -3.2 25 -3.7 96 96 NW 22 35 29.75 1007 1.25 2.011675 0 0
2:55 am 02:55 Cloudy with Light Snow 26 -3.2 25 -3.8 96 96 NW 15 24 29.76 1008 1 1.60934 0 0
3:15 am 03:15 Cloudy with Light Snow 26 -3.3 25 -4 95 95 NW 18 30 29.76 1008 1.25 2.011675 0 0
3:35 am 03:35 Windy with Snow Likely 26 -3.3 25 -4 95 95 NW 24 39 29.76 1008 1.25 2.011675 0.01 0.254
3:55 am 03:55 Windy with Snow Likely 26 -3.5 25 -4 96 96 NW 25 41 29.75 1007 1.75 2.816345 0.01 0.254
4:15 am 04:15 Windy with Snow Likely 26 -3.6 24 -4.5 94 94 NW 26 43 29.75 1008 1.25 2.011675 0 0
4:35 am 04:35 Windy with Snow Likely 26 -3.6 24 -4.4 94 94 NW 26 43 29.75 1008 1.5 2.41401 0 0
4:55 am 04:55 Cloudy with Light Snow 25 -3.7 24 -4.3 96 96 NW 17 28 29.75 1008 1.25 2.011675 0 0
5:15 am 05:15 Cloudy with Snow 25 -4 24 -4.6 96 96 NW 29 46 29.76 1008 1 1.60934 0 0
5:35 am 05:35 Windy with Snow Likely 25 -4 24 -4.7 95 95 NW 24 39 29.76 1008 1.25 2.011675 0 0
5:55 am 05:55 Windy with Snow Likely 25 -4 24 -4.7 95 95 NW 25 41 29.76 1008 1.5 2.41401 0 0
6:15 am 06:15 Windy with Snow Likely 24 -4.2 23 -5.2 93 93 NW 32 52 29.76 1008 1.25 2.011675 0 0
6:35 am 06:35 Windy with Snow Likely 25 -4.1 23 -5 94 94 NW 23 37 29.76 1008 1.5 2.41401 0 0
6:55 am 06:55 Windy with Snow Likely 25 -4.1 23 -5.2 92 92 NW 22 35 29.76 1008 1.75 2.816345 0 0
7:15 am 07:15 Windy with Snow Likely 24 -4.2 23 -5.1 94 94 NW 26 43 29.76 1008 2 3.21868 0 0
7:35 am 07:35 Windy with Snow Likely 24 -4.2 23 -5.1 94 94 NW 23 37 29.76 1008 2 3.21868 0 0
7:55 am 07:55 Windy with Snow Likely 25 -4.1 23 -5.1 93 93 NW 23 37 29.76 1008 2.5 4.02335 0 0
8:15 am 08:15 Windy with Snow Likely 25 -4 23 -5.1 92 92 NW 24 39 29.76 1008 2 3.21868 0 0
8:35 am 08:35 Windy with Snow Likely 25 -4 23 -5 93 93 NW 22 35 29.76 1008 1.75 2.816345 0 0
8:55 am 08:55 Windy with Snow Likely 25 -4 23 -5 93 93 NW 22 35 29.76 1008 1.5 2.41401 0 0
9:15 am 09:15 Cloudy with Snow 25 -4 23 -4.8 94 94 WNW 21 33 29.77 1008 0.75 1.207005 0 0
9:35 am 09:35 Windy with Snow Likely 25 -3.8 24 -4.7 94 94 NW 21 33 29.76 1008 0.75 1.207005 0 0
9:55 am 09:55 Windy with Snow Likely 25 -3.7 24 -4.6 94 94 NW 23 37 29.76 1008 1 1.60934 0 0
10:15 am 10:15 Windy with Snow Likely 26 -3.6 24 -4.6 93 93 NW 23 37 29.77 1008 1 1.60934 0 0
10:35 am 10:35 Cloudy with Light Snow 26 -3.5 24 -4.5 93 93 NW 17 28 29.77 1008 1.25 2.011675 0 0
10:55 am 10:55 Windy with Snow Likely 26 -3.5 24 -4.5 93 93 NW 21 33 29.77 1008 1 1.60934 0 0
11:15 am 11:15 Windy with Snow Likely 26 -3.3 24 -4.5 92 92 NW 20 31 29.76 1008 1.25 2.011675 0 0
11:35 am 11:35 Windy with Snow Likely 26 -3.1 25 -4.1 93 93 NW 22 35 29.76 1008 1 1.60934 0 0
11:55 am 11:55 Windy with Snow Likely 27 -3 25 -4 93 93 NW 22 35 29.76 1008 1 1.60934 0 0
12:15 pm 12:15 Windy with Snow Likely 27 -2.9 24 -4.2 91 91 NW 30 48 29.74 1007 1 1.60934 0 0
12:35 pm 12:35 Windy with Snow Likely 27 -3 24 -4.2 92 92 NW 32 52 29.75 1007 0.75 1.207005 0 0
12:55 pm 12:55 Windy with Snow Likely 27 -3 25 -4.1 92 92 NW 29 46 29.74 1007 1 1.60934 0 0
1:15 pm 13:15 Windy with Snow Likely 27 -3 25 -4.1 92 92 NW 26 43 29.74 1007 1 1.60934 0 0
1:35 pm 13:35 Windy with Snow Likely 27 -2.7 24 -4.5 88 88 NW 29 46 29.73 1007 1.25 2.011675 0 0
1:55 pm 13:55 Cloudy with Mist and Fog 28 -2.5 24 -4.5 86 86 NW 30 48 29.73 1007 2 3.21868 0 0
2:15 pm 14:15 Cloudy with Mist and Fog 28 -2.5 24 -4.3 88 88 NW 33 54 29.73 1007 1.75 2.816345 0 0
2:35 pm 14:35 Cloudy with Mist and Fog 28 -2.3 24 -4.2 87 87 NW 31 50 29.73 1007 2 3.21868 0 0
2:55 pm 14:55 Cloudy with Mist and Fog 28 -2.2 25 -4.1 87 87 NNW 32 52 29.74 1007 2 3.21868 0 0
3:15 pm 15:15 Cloudy with Mist and Fog 28 -2.1 25 -4.1 86 86 NW 30 48 29.74 1007 1.75 2.816345 0 0
3:35 pm 15:35 Cloudy with Mist and Fog 28 -2.1 25 -4 87 87 NW 32 52 29.75 1007 1.75 2.816345 0 0
3:55 pm 15:55 Windy with Snow Likely 28 -2.1 25 -4 87 87 NW 28 44 29.76 1008 1.75 2.816345 0 0
4:15 pm 16:15 Windy with Snow Likely 28 -2.2 25 -4 88 88 NW 30 48 29.77 1008 2 3.21868 0 0
4:35 pm 16:35 Windy with Snow Likely 28 -2.2 25 -3.9 88 88 NW 31 50 29.78 1008 1.5 2.41401 0 0
4:55 pm 16:55 Windy with Snow Likely 28 -2.3 25 -4 88 88 NW 32 52 29.79 1009 1.75 2.816345 0 0
5:15 pm 17:15 Windy with Snow Likely 28 -2.3 25 -4 88 88 NW 32 52 29.8 1009 1.25 2.011675 0 0
5:35 pm 17:35 Windy with Snow Likely 28 -2.2 25 -4 88 88 NW 33 54 29.8 1009 1.75 2.816345 0 0
5:55 pm 17:55 Windy with Snow Likely 28 -2.2 25 -3.9 88 88 NW 33 54 29.81 1009 2.5 4.02335 0 0
6:15 pm 18:15 Windy with Snow Likely 28 -2.1 25 -3.9 88 88 NW 32 52 29.81 1009 2.5 4.02335 0 0
6:35 pm 18:35 Cloudy with Mist and Fog 28 -2 25 -4 86 86 NW 32 52 29.82 1010 3 4.82802 0 0
6:55 pm 18:55 Cloudy with Mist and Fog 28 -2 24 -4.2 85 85 NW 30 48 29.82 1010 4 6.43736 0 0
7:15 pm 19:15 Cloudy with Mist and Fog 28 -2.3 24 -4.6 84 84 NW 32 52 29.83 1010 3 4.82802 0 0
7:35 pm 19:35 Cloudy with Mist and Fog 28 -2.5 23 -5 83 83 NW 26 43 29.83 1010 4 6.43736 0 0
7:55 pm 19:55 Mostly Cloudy with Mist and Fog 28 -2.5 23 -5.1 83 83 NW 30 48 29.83 1010 5 8.0467 0 0
8:15 pm 20:15 Hazy 27 -2.6 22 -5.5 81 81 NW 26 43 29.83 1010 5 8.0467 0 0
8:35 pm 20:35 Clear 27 -2.8 22 -5.5 82 82 NW 24 39 29.85 1011 7 11.26538 0 0
8:55 pm 20:55 Clear 27 -2.9 22 -5.5 82 82 NW 24 39 29.86 1011 10 16.0934 0 0
9:15 pm 21:15 Clear 27 -3 22 -5.6 82 82 NW 26 43 29.86 1011 7 11.26538 0 0
9:35 pm 21:35 Clear 26 -3.1 22 -5.8 82 82 NW 26 43 29.86 1011 10 16.0934 0 0
9:55 pm 21:55 Clear 26 -3.1 21 -6 81 81 NW 25 41 29.87 1011 10 16.0934 0 0
10:15 pm 22:15 Clear 26 -3.2 21 -6 81 81 NW 25 41 29.88 1012 10 16.0934 0 0
10:35 pm 22:35 Partly Cloudy 26 -3.2 21 -6 81 81 NW 24 39 29.88 1012 10 16.0934 0 0
10:55 pm 22:55 Clear 26 -3.2 21 -6 81 81 NW 26 43 29.89 1012 10 16.0934 0 0
11:15 pm 23:15 Clear 26 -3.2 21 -6 81 81 NW 21 33 29.89 1012 10 16.0934 0 0
11:35 pm 23:35 Clear 26 -3.1 21 -6 81 81 NW 24 39 29.89 1012 10 16.0934 0 0
11:55 pm 23:55 Clear 26 -3.6 20 -6.5 81 81 WNW 22 35 29.9 1013 10 16.0934 0 0

Powered by AerisWeather